Terminal Aerodrome Forecast
Issued by NWS Billings, MT

Home | Current Version | Previous Version | Graphics & Text | Print | Product List | Glossary On
Versions: 1 2 3 4 5 6 7 8 9 10 11 12 13 14 15 16 17 18 19 20 21 22 23 24 25 26 27 28 29 30 31 32 33 34 35 36 37 38 39 40
000
FTUS45 KBYZ 030539
TAFMLS
TAF
KMLS 030539Z 0306/0406 28006KT P6SM BKN025
     FM031100 09005KT P6SM VCFG BKN016
     FM031800 10008KT P6SM SCT019
     FM040300 12015KT P6SM VCTS SCT050CB=

USA.gov is the U.S. government's official web portal to all federal, state and local government web resources and services.